Location: Albuquerque Trailhead
(34.7934°N, 106.3736°W)
Time: 01:54:02
(UTC+00:00)

Cosmos 968 Rocket - Pass Details

Date: 20 June 2021
Orbit: 741 x 770 km, 74.0° (Epoch: 27 July)

Event Time Altitude Azimuth Distance (km) Brightness Sun altitude
Rises 04:45:52 0° 352° (N) 3,185 7.7 -22.8°
Reaches altitude 10° 04:48:25 10° 1° (N) 2,260 6.6 -23.1°
Maximum altitude 04:53:06 35° 67° (ENE) 1,185 4.3 -23.7°
Enters shadow 04:53:28 35° 77° (ENE) 1,196 4.3 -23.7°
